Probability
1 1 0 0 0 0 0 0 0 0 0 0 0 0 0 0 0 0 0 0 0 0 0 0 0 0 0 0 0 0 0 0 0 0 0 0 0 0 0 0 0 0 0
1 0 0 0 0 0 0 0 0 0 0 0 0 0 0 0 0 0 0 0 0 0 0 0 0 0 0 0 0 0 0 0 0 0 0 0 0 0 0 0 0 0 0
0 0 0 0 0 0 0 0 0 0 0 0 0 0 0 0 0 0 0 0 0 0 0 0 0 0 0 0 0 0 0 0 0 0 0 0 0 0 0 0 0 0 0
0 0 0 0 0 0 0 0 0 0 0 0 0 0 0 0 0 0 0 0 0 0 0 0 0 0 0 0 0 0 0 0 0 0 0 0 0 0 0 0 0 0 0
0 0 0 0 0 0 0 0 0 0 0 0 0 0 0 0 0 0 0 0 0 0 0 0 0 0 0 0 0 0 0 0 0 0 0 0 0 0 0 0 0 0 0
0 0 0 0 0 0 0 0 0 0 0 0 0 0 0 0 0 0 0 0 0 0 0 0 0 0 0 0 0 0 0 0 0 0 0 0 0 0 0 0 0 0 0
0 0 0 0 0 0 0 0 0 0 0 0 0 0 0 0 0 0 0 0 0 0 0 0 0 0 0 0 0 0 0 0 0 0 0 0 0 0 0 0 0 0 0
0 0 0 0 0 0 0 0 0 0 0 0 0 0 0 0 0 0 0 0 0 0 0 0 0 0 0 0 0 0 0 0 0 0 0 0 0 0 0 0 0 0 0
0 0 0 0 0 0 0 0 0 0 0 0 0 0 0 0 0 0 0 0 0 0 0 0 0 0 0 0 0 0 0 0 0 0 0 0 0 0 0 0 0 0 0
1 1 0 0 0 0 0 0 0 0 0 0 0 0 0 0 0 0 0 0 0 0 0 0 0 0 0 0 0 0 0 0 0 0 0 0 0 0 0 0 0 0 0
0 0 0 0 0 0 0 0 0 0 0 0 0 0 0 0 0 0 0 0 0 0 0 0 0 0 0 0 0 0 0 0 0 0 0 0 0 0 0 0 0 0 0
0 0 0 0 0 0 0 0 0 0 0 0 0 0 0 0 0 0 0 0 0 0 0 0 0 0 0 0 0 0 0 0 0 0 0 0 0 0 0 0 0 0 0
0 0 0 0 0 0 0 0 0 0 0 0 0 0 0 0 0 0 0 0 0 0 0 0 0 0 0 0 0 0 0 0 0 0 0 0 0 0 0 0 0 0 0
0 0 0 0 0 0 0 0 0 0 0 0 0 0 0 0 0 0 0 0 0 0 0 0 0 0 0 0 0 0 0 0 0 0 0 0 0 0 0 0 0 0 0
0 0 0 0 0 0 0 0 0 0 0 0 0 0 0 0 0 0 0 0 0 0 0 0 0 0 0 0 0 0 0 0 0 0 0 0 0 0 0 0 0 0 0
0 0 0 0 0 0 0 0 0 0 0 0 0 0 0 0 0 0 0 0 0 0 0 0 0 0 0 0 0 0 0 0 0 0 0 0 0 0 0 0 0 0 0
0 0 0 0 0 0 0 0 0 0 0 0 0 0 0 0 0 0 0 0 0 0 0 0 0 0 0 0 0 0 0 0 0 0 0 0 0 0 0 0 0 0 0
0 0 0 0 0 0 0 0 0 0 0 0 0 0 0 0 0 0 0 0 0 0 0 0 0 0 0 0 0 0 0 0 0 0 0 0 0 0 0 0 0 0 0
0 0 0 0 0 0 0 0 0 0 0 0 0 0 0 0 0 0 0 0 0 0 0 0 0 0 0 0 0 0 0 0 0 0 0 0 0 0 0 0 0 0 0
0 0 0 0 0 0 0 0 0 0 0 0 0 0 0 0 0 0 0 0 0 0 0 0 0 0 0 0 0 0 0 0 0 0 0 0 0 0 0 0 0 0 0
0 0 0 0 0 0 0 0 0 0 0 0 0 0 0 0 0 0 0 0 0 0 0 0 0 0 0 0 0 0 0 0 0 0 0 0 0 0 0 0 0 0 0
0 0 0 0 0 0 0 0 0 0 0 0 0 0 0 0 0 0 0 0 0 0 0 0 0 0 0 0 0 0 0 0 0 0 0 0 0 0 0 0 0 0 0
0 0 0 0 0 0 0 0 0 0 0 0 0 0 0 0 0 0 0 0 0 0 0 0 0 0 0 0 0 0 0 0 0 0 0 0 0 0 0 0 0 0 0
0 0 0 0 0 0 0 0 0 0 0 0 0 0 0 0 0 0 0 0 0 0 0 0 0 0 0 0 0 0 0 0 0 0 0 0 0 0 0 0 0 0 0
0 0 0 0 0 0 0 0 0 0 0 0 0 0 0 0 0 0 0 0 0 0 0 0 0 0 0 0 0 0 0 0 0 0 0 0 0 0 0 0 0 0 0
0 0 0 0 0 0 0 0 0 0 0 0 0 0 0 0 0 0 0 0 0 0 0 0 0 0 0 0 0 0 0 0 0 0 0 0 0 0 0 0 0 0 0
Wind_Speed
6 4 4 3 2 1 2 4 5 5 7 8 8 8 6 4 2 1 2 4 4 3 3 4 3 2 2 1 1 2 2 3 5 3 3 4 6 5 5 5 5 5 5
6 5 5 4 3 2 3 4 5 5 6 7 7 7 6 4 2 2 3 4 5 5 4 4 4 4 4 3 3 4 4 5 6 6 4 5 6 4 5 5 5 5 5
6 6 5 5 4 3 3 3 4 4 5 6 6 7 7 6 5 6 7 7 7 7 6 6 5 7 6 5 6 7 7 8 7 6 4 4 4 3 4 4 5 4 5
7 7 6 6 6 5 3 2 3 3 4 5 5 7 7 8 9 9 10 10 10 9 7 6 6 7 7 7 8 9 9 9 7 6 4 4 3 3 4 4 4 4 4
7 7 7 7 6 5 4 3 2 1 2 3 4 6 7 7 8 9 9 10 9 9 8 8 8 10 11 9 8 7 8 7 6 6 4 4 4 4 4 3 3 3 3
8 8 7 6 6 5 5 3 2 1 0 1 3 4 6 5 8 10 9 8 8 8 8 7 8 9 11 14 14 12 9 8 6 5 3 4 3 3 3 3 3 3 4
8 7 7 7 7 6 5 4 4 3 2 2 2 4 5 4 9 11 11 8 7 7 7 6 7 7 8 7 10 12 12 11 8 5 4 3 2 2 3 4 3 2 1
8 7 7 8 8 7 6 5 5 4 4 3 3 3 4 5 10 12 12 9 8 7 6 7 7 7 6 7 8 8 7 6 6 4 4 2 2 1 1 1 0 2 3
8 8 9 9 9 8 7 6 5 4 4 4 4 5 5 5 9 12 11 7 7 6 5 6 7 7 10 11 9 8 7 6 7 9 7 6 6 7 5 4 5 4 3
9 7 8 9 10 10 9 7 5 5 5 6 5 5 6 5 8 12 11 6 6 5 4 5 8 9 10 11 8 8 8 5 5 7 8 8 7 8 9 5 3 3 2
12 9 7 9 11 11 9 7 6 6 6 6 6 5 5 5 7 11 12 6 6 5 4 3 3 9 10 10 8 6 6 5 6 6 5 5 5 5 5 5 3 3 3
12 10 7 8 10 10 10 9 8 8 8 7 6 5 3 4 5 8 12 11 9 7 5 3 3 8 9 9 7 9 11 9 5 5 5 5 4 4 4 5 5 4 3
11 11 9 8 9 10 12 11 9 8 8 7 7 6 4 3 3 7 11 14 13 6 5 8 8 9 8 6 9 11 8 6 5 5 4 3 2 2 3 4 6 5 5
11 10 9 8 9 9 10 10 10 10 9 8 8 7 6 4 4 3 4 7 9 6 4 6 6 7 6 5 6 6 4 4 4 4 2 2 3 3 4 4 4 4 4
10 9 8 8 8 9 10 11 12 11 13 11 9 9 10 8 9 12 9 6 6 6 6 3 2 3 3 3 3 3 3 4 4 3 3 4 4 3 3 3 3 4 4
8 8 7 7 6 7 9 7 10 10 16 16 14 12 9 11 16 16 14 13 13 13 7 4 3 3 3 4 4 3 2 3 3 3 3 3 3 3 3 3 3 4 3
8 8 7 7 6 7 9 10 8 5 10 14 15 16 13 15 18 18 16 14 14 12 5 4 3 3 4 5 5 4 3 3 3 3 3 3 3 2 2 3 3 3 3
8 9 8 8 7 7 9 10 10 11 9 6 7 12 15 18 19 18 16 11 6 4 3 4 4 3 5 6 6 4 4 4 3 3 3 3 3 3 2 2 2 2 2
7 6 6 7 7 6 8 9 10 11 10 8 4 4 9 13 15 16 15 6 7 5 4 4 4 4 5 7 7 6 5 5 5 4 3 3 3 3 2 2 2 3 3
7 11 9 7 6 5 7 9 10 10 10 9 9 8 8 7 6 7 5 4 6 5 5 5 5 5 6 6 7 6 5 5 5 4 4 4 3 3 4 3 3 2 2
6 7 10 7 6 6 7 10 10 10 10 10 9 11 17 12 11 11 8 6 6 6 6 5 5 6 7 6 6 7 7 5 5 5 5 4 4 3 3 3 3 3 2
6 5 5 6 5 6 8 9 10 11 11 11 8 9 15 8 8 9 8 7 6 5 5 5 5 6 8 8 8 7 7 6 6 6 6 5 4 4 4 3 3 2 2
6 6 6 6 5 7 9 9 10 11 11 10 10 11 10 7 7 8 8 7 6 5 5 5 5 5 6 6 7 8 8 8 8 9 8 6 5 5 4 4 4 4 3
6 6 6 6 5 6 8 9 10 11 11 11 10 10 11 10 8 9 8 6 6 6 5 6 6 9 10 8 6 6 7 8 9 9 11 9 8 6 5 4 4 5 4
5 5 6 5 5 7 8 9 10 11 11 11 10 10 10 9 8 7 7 7 7 7 8 7 6 8 11 12 10 8 10 13 12 10 9 9 9 8 7 6 5 4 3
5 5 4 4 4 6 8 9 9 10 10 10 10 10 10 9 8 7 7 6 7 6 7 7 9 10 11 11 12 13 12 13 13 13 11 9 10 8 8 6 7 5 5
Wind_Direction
194 189 184 198 221 275 300 303 308 314 322 328 329 330 329 326 333 155 151 149 152 141 128 122 110 101 100 100 115 116 124 120 111 69 34 26 38 33 19 26 37 39 32
197 193 193 199 205 234 280 297 307 315 323 330 335 342 347 354 17 71 106 116 123 117 107 102 104 102 89 84 87 84 84 87 100 89 40 27 32 27 29 33 30 39 38
194 194 198 201 202 215 251 284 308 324 335 344 358 5 9 22 45 65 79 82 89 91 92 96 95 94 85 78 80 83 84 86 86 90 58 25 20 17 22 28 34 27 34
194 194 200 203 200 204 218 255 298 325 347 357 10 18 25 42 57 66 75 78 77 75 77 79 79 83 83 81 82 87 95 91 83 80 63 30 13 349 24 18 17 15 20
193 196 205 202 194 193 202 228 272 306 349 1 22 38 39 52 70 78 81 86 84 79 70 65 66 71 73 77 87 89 93 92 84 78 64 42 21 14 4 352 17 355 355
198 202 201 190 187 188 196 204 212 228 274 41 50 56 55 69 91 94 99 94 89 83 75 64 60 57 68 71 75 77 88 97 94 85 71 61 29 9 1 13 19 26 360
207 199 190 186 185 188 187 184 195 199 185 141 99 84 77 90 107 105 103 99 90 83 77 71 71 62 66 70 66 62 61 71 92 109 94 79 58 8 27 25 21 43 358
213 201 191 184 185 181 177 184 192 183 174 161 140 119 101 104 115 110 103 94 88 82 82 87 83 63 66 82 73 59 48 43 56 79 114 126 125 109 90 92 344 22 337
229 206 195 186 181 177 178 184 183 171 166 158 153 142 116 103 118 120 110 99 91 79 75 78 88 79 75 81 78 70 52 26 44 69 83 87 72 64 64 50 35 42 6
288 241 204 190 183 181 180 176 171 166 164 154 154 152 133 120 122 126 119 115 105 95 75 66 77 88 81 80 83 81 70 41 49 56 49 41 40 41 46 60 75 74 40
312 286 231 199 189 182 174 168 163 161 157 157 154 154 145 139 129 137 139 134 136 129 115 98 84 94 90 86 85 84 95 95 73 69 56 38 30 29 25 28 49 107 96
313 301 261 216 196 182 172 170 165 162 162 163 155 152 152 155 149 152 156 156 151 141 146 146 132 112 101 93 84 90 86 80 71 64 54 37 30 21 10 19 34 56 88
311 310 292 242 208 181 176 173 169 168 170 173 167 165 165 164 169 162 160 161 157 143 155 159 147 120 100 86 86 88 82 78 75 68 58 37 15 9 18 24 21 29 34
304 307 303 264 218 190 180 176 175 177 177 177 176 173 164 159 164 157 144 146 146 131 131 146 129 103 88 87 79 74 78 95 101 94 77 38 29 36 32 30 32 24 36
295 298 301 278 225 196 187 185 183 186 184 179 183 176 170 175 188 173 159 158 158 151 130 99 87 85 83 78 75 79 80 81 80 71 65 52 43 43 23 17 36 47 51
289 293 292 286 246 203 185 181 191 181 184 183 182 177 183 180 171 176 175 171 166 154 132 132 146 147 145 145 139 121 102 104 105 93 76 70 66 58 33 17 36 53 49
271 281 290 290 261 212 184 175 171 172 182 184 184 182 176 169 168 174 176 171 165 152 132 152 166 171 162 157 157 150 147 149 133 109 96 86 83 67 52 32 29 42 39
263 271 281 286 266 222 190 179 174 170 169 175 191 191 177 167 167 165 157 138 144 150 150 163 175 171 159 158 161 156 149 144 132 125 118 109 101 89 71 52 49 65 55
258 260 271 283 266 231 192 176 172 172 170 160 139 153 174 162 157 159 154 149 162 173 176 173 169 160 161 164 164 162 157 155 153 148 146 143 132 113 96 81 78 73 75
251 257 266 276 264 231 192 175 170 167 163 163 166 157 146 139 151 169 185 168 165 171 175 176 173 165 166 170 167 165 160 157 155 156 162 163 153 134 128 119 106 97 90
247 256 268 276 259 226 195 177 170 166 166 168 170 168 166 170 174 179 185 181 177 175 175 176 174 172 172 174 170 171 169 169 168 166 168 171 164 152 149 143 130 121 125
245 247 258 271 256 220 192 176 169 167 167 164 159 161 173 172 171 177 186 191 187 180 173 171 174 177 178 179 175 173 173 173 173 171 173 174 170 162 155 146 135 129 135
239 249 258 265 247 204 184 174 169 167 165 163 159 159 172 182 175 180 187 190 185 182 178 174 176 181 184 182 177 174 176 183 181 176 173 172 170 167 160 156 154 147 156
246 254 256 258 227 189 176 169 167 166 164 163 162 165 175 184 182 184 185 184 185 187 182 180 185 190 190 187 184 183 183 180 174 176 173 171 170 167 162 159 162 163 166
252 257 254 235 202 175 166 162 163 163 163 165 167 169 175 181 183 182 181 183 186 190 192 189 190 195 195 192 189 191 190 181 177 174 173 171 170 169 167 165 165 163 168
258 261 245 207 179 164 160 159 159 159 161 165 168 170 173 179 184 183 179 180 186 192 194 194 196 196 196 196 198 193 188 185 183 178 174 173 172 173 170 167 167 164 159